This demonstration page uses our WeatherBlox Daily Observations layout. Learn more.

Left ArrowRight Arrow

Hourly Observations for March 18, 2021

Temp ( °F °C ) Dew Point ( °F °C ) Humidity (%) Winds ( mph kmh ) Pressure ( in mb ) Visibility ( mi km ) Precip ( " mm )
12:15 am 00:15 Cloudy 35 1.7 31 -0.6 85 85 N 12 19 30.23 1024 10 16 N/A
12:35 am 00:35 Cloudy 35 1.7 31 -0.5 86 86 N 15 24 30.23 1024 10 16 N/A
12:55 am 00:55 Cloudy 35 1.6 31 -0.5 86 86 N 16 26 30.24 1024 10 16 N/A
1:15 am 01:15 Cloudy 35 1.6 31 -0.3 87 87 N 15 24 30.24 1024 10 16 N/A
1:35 am 01:35 Cloudy 35 1.6 31 -0.5 86 86 N 15 24 30.24 1024 10 16 N/A
1:55 am 01:55 Cloudy 35 1.5 31 -0.7 85 85 N 16 26 30.24 1024 10 16 N/A
2:15 am 02:15 Cloudy 35 1.6 30 -1 83 83 N 13 20 30.26 1025 10 16 N/A
2:35 am 02:35 Cloudy 35 1.5 30 -1.2 82 82 N 15 24 30.28 1025 10 16 N/A
2:55 am 02:55 Cloudy 34 1.3 30 -1.2 84 84 N 14 22 30.28 1025 10 16 N/A
3:15 am 03:15 Cloudy 34 1.1 29 -1.5 83 83 N 14 22 30.28 1026 10 16 N/A
3:35 am 03:35 Cloudy 34 1.1 29 -1.5 83 83 N 14 22 30.30 1026 10 16 N/A
3:55 am 03:55 Cloudy 34 1.1 29 -1.5 83 83 N 16 26 30.30 1026 10 16 N/A
4:15 am 04:15 Cloudy 34 1.1 29 -1.7 82 82 N 17 28 30.30 1026 10 16 N/A
4:35 am 04:35 Cloudy 34 1 28 -2 81 81 N 16 26 30.30 1026 10 16 N/A
4:55 am 04:55 Cloudy 34 1 29 -1.8 82 82 N 14 22 30.30 1026 10 16 N/A
5:15 am 05:15 Cloudy 33 0.8 29 -1.7 84 84 N 12 19 30.31 1026 10 16 N/A
5:35 am 05:35 Cloudy 33 0.7 29 -1.7 84 84 N 9 15 30.31 1026 10 16 N/A
5:55 am 05:55 Cloudy 33 0.7 28 -2 82 82 N 12 19 30.31 1026 10 16 N/A
6:15 am 06:15 Cloudy 33 0.7 29 -1.7 84 84 N 10 17 30.32 1027 10 16 N/A
6:35 am 06:35 Cloudy 33 0.6 28 -2 83 83 N 14 22 30.32 1027 10 16 N/A
6:55 am 06:55 Cloudy 33 0.5 28 -2.3 82 82 N 14 22 30.32 1027 10 16 N/A
7:15 am 07:15 Mostly Cloudy 32 undefined 28 -2.5 83 83 N 14 22 30.33 1027 10 16 N/A
7:35 am 07:35 Partly Cloudy 32 undefined 28 -2.4 84 84 N 9 15 30.34 1027 10 16 N/A
7:55 am 07:55 Mostly Cloudy 32 undefined 28 -2 87 87 N 12 19 30.35 1028 10 16 N/A
8:15 am 08:15 Cloudy 32 0.1 29 -1.8 87 87 N 13 20 30.34 1028 10 16 N/A
8:35 am 08:35 Cloudy 33 0.3 29 -1.9 85 85 N 15 24 30.36 1028 10 16 N/A
8:55 am 08:55 Cloudy 33 0.5 29 -1.8 85 85 N 14 22 30.36 1028 10 16 N/A
9:15 am 09:15 Cloudy 33 0.7 28 -2 82 82 N 16 26 30.38 1029 10 16 N/A
9:35 am 09:35 Cloudy 33 0.7 28 -2 82 82 N 15 24 30.39 1029 10 16 N/A
9:55 am 09:55 Cloudy 34 1 28 -2.1 80 80 N 18 30 30.39 1029 10 16 N/A
10:15 am 10:15 Cloudy 34 1 28 -2 81 81 N 20 31 30.40 1029 10 16 N/A
10:35 am 10:35 Cloudy 34 1.2 28 -2 79 79 N 17 28 30.40 1030 10 16 N/A
10:55 am 10:55 Cloudy 35 1.5 29 -1.6 80 80 N 18 30 30.41 1030 10 16 N/A
11:15 am 11:15 Cloudy 35 1.8 29 -1.9 77 77 N 15 24 30.41 1030 10 16 N/A
11:35 am 11:35 Cloudy 35 1.9 30 -1.2 80 80 N 17 28 30.42 1030 10 16 N/A
11:55 am 11:55 Cloudy 35 1.8 29 -1.7 78 78 N 18 30 30.42 1030 10 16 N/A
12:15 pm 12:15 Cloudy 36 2 29 -1.7 77 77 N 16 26 30.42 1030 10 16 N/A
12:35 pm 12:35 Cloudy 36 2.3 29 -1.7 75 75 N 14 22 30.41 1030 10 16 N/A
12:55 pm 12:55 Cloudy 37 3 29 -1.6 72 72 N 16 26 30.41 1030 10 16 N/A
1:15 pm 13:15 Cloudy 38 3.1 29 -1.6 72 72 N 16 26 30.41 1030 10 16 N/A
1:35 pm 13:35 Cloudy 38 3.3 29 -1.6 71 71 N 15 24 30.40 1030 10 16 N/A
1:55 pm 13:55 Cloudy 40 4.4 30 -0.9 69 69 N 16 26 30.39 1029 10 16 N/A
2:15 pm 14:15 Cloudy 40 4.4 30 -1 68 68 N 14 22 30.39 1029 10 16 N/A
2:35 pm 14:35 Cloudy 41 4.9 30 -1.1 65 65 N 15 24 30.39 1029 10 16 N/A
2:55 pm 14:55 Mostly Cloudy 42 5.7 31 -0.8 63 63 N 17 28 30.37 1029 10 16 N/A
3:15 pm 15:15 Mostly Cloudy 42 5.4 30 -0.9 64 64 NNE 13 20 30.37 1029 10 16 N/A
3:35 pm 15:35 Cloudy 42 5.5 30 -1 63 63 N 13 20 30.37 1029 10 16 N/A
3:55 pm 15:55 Cloudy 44 6.4 31 -0.4 62 62 N 15 24 30.37 1028 10 16 N/A
4:15 pm 16:15 Mostly Cloudy 44 6.6 30 -0.9 59 59 NNE 13 20 30.35 1028 10 16 N/A
4:35 pm 16:35 Mostly Cloudy 44 6.7 30 -0.9 59 59 N 14 22 30.35 1028 10 16 N/A
4:55 pm 16:55 Partly Cloudy 46 7.6 31 -0.3 58 58 NNE 10 17 30.34 1028 10 16 N/A
5:15 pm 17:15 Partly Cloudy 46 7.8 32 -0.2 57 57 N 7 11 30.34 1028 10 16 N/A
5:35 pm 17:35 Partly Cloudy 46 7.8 32 -0.1 58 58 NNE 12 19 30.34 1028 10 16 N/A
5:55 pm 17:55 Partly Cloudy 46 7.8 32 -0.1 58 58 NE 10 17 30.34 1028 10 16 N/A
6:15 pm 18:15 Sunny 46 7.8 32 -0.1 58 58 NNE 8 13 30.34 1028 10 16 N/A
6:35 pm 18:35 Sunny 46 7.6 32 -0.2 58 58 NE 9 15 30.35 1028 10 16 N/A
6:55 pm 18:55 Partly Cloudy 46 7.6 32 undefined 59 59 NE 9 15 30.35 1028 10 16 N/A
7:15 pm 19:15 Sunny 45 7 32 undefined 61 61 NNE 8 13 30.37 1028 10 16 N/A
7:35 pm 19:35 Sunny 43 5.9 33 0.5 69 69 NE 7 11 30.38 1029 10 16 N/A
7:55 pm 19:55 Clear 40 4.2 32 0.1 75 75 NNE 6 9 30.40 1029 10 16 N/A
8:15 pm 20:15 Clear 37 2.9 31 -0.5 79 79 NNE 6 9 30.42 1030 10 16 N/A
8:35 pm 20:35 Clear 35 1.8 30 -0.9 82 82 NNE 5 7 30.43 1030 10 16 N/A
8:55 pm 20:55 Clear 36 2.2 31 -0.5 83 83 NNE 5 7 30.42 1030 10 16 N/A
9:15 pm 21:15 Clear 37 2.5 31 -0.6 80 80 N 3 6 30.43 1031 10 16 N/A
9:35 pm 21:35 Clear 35 1.7 31 -0.7 84 84 NNE 5 7 30.44 1031 10 16 N/A
9:55 pm 21:55 Clear 34 1.1 30 -1 86 86 NNE 6 9 30.46 1031 10 16 N/A
10:15 pm 22:15 Clear 33 0.8 30 -1.2 87 87 NNE 6 9 30.46 1031 10 16 N/A
10:35 pm 22:35 Clear 33 0.5 29 -1.5 87 87 NNE 7 11 30.46 1032 10 16 N/A
10:55 pm 22:55 Clear 34 1.2 31 -0.7 87 87 N 6 9 30.46 1032 10 16 N/A
11:15 pm 23:15 Clear 33 0.6 29 -1.5 86 86 N 6 9 30.47 1032 10 16 N/A
11:35 pm 23:35 Clear 33 0.5 29 -1.6 86 86 N 3 6 30.48 1032 10 16 N/A
11:55 pm 23:55 Clear 32 -0.1 29 -1.6 90 90 N 3 6 30.49 1032 10 16 N/A

Powered by AerisWeather